Time,TemperatureF,DewpointF,PressureIn,WindDirection,WindDirectionDegrees,WindSpeedMPH,WindSpeedGustMPH,Humidity,HourlyPrecipIn,Conditions,Clouds,dailyrainin,SoftwareType,DateUTC
2013-05-16 00:24:00,53.0,31.0,29.77,SW,230,2.0,6.0,42,0.00,,,-99.99,,2013-05-16 07:24:00,
2013-05-16 00:34:00,53.0,31.0,29.77,SW,230,2.0,6.0,42,0.00,,,-99.99,,2013-05-16 07:34:00,
2013-05-16 01:23:00,53.0,27.0,29.76,WSW,240,3.0,6.0,36,0.00,,,-99.99,,2013-05-16 08:23:00,
2013-05-16 01:34:00,53.0,27.0,29.76,WSW,240,3.0,6.0,36,0.00,,,-99.99,,2013-05-16 08:34:00,
2013-05-16 02:24:00,54.0,23.0,29.75,WSW,250,1.0,5.0,30,0.00,,,-99.99,,2013-05-16 09:24:00,
2013-05-16 02:35:00,54.0,23.0,29.75,WSW,250,1.0,5.0,30,0.00,,,-99.99,,2013-05-16 09:35:00,
2013-05-16 03:24:00,54.0,21.0,29.73,WSW,240,2.0,4.0,27,0.00,,,-99.99,,2013-05-16 10:24:00,
2013-05-16 03:35:00,54.0,21.0,29.73,WSW,240,2.0,4.0,27,0.00,,,-99.99,,2013-05-16 10:35:00,
2013-05-16 04:25:00,53.0,17.0,29.72,North,0,0.0,4.0,24,0.00,,,-99.99,,2013-05-16 11:25:00,
2013-05-16 04:35:00,53.0,17.0,29.72,North,0,0.0,4.0,24,0.00,,,-99.99,,2013-05-16 11:35:00,
2013-05-16 05:23:00,54.0,15.0,29.71,SW,230,2.0,3.0,21,0.00,,,-99.99,,2013-05-16 12:23:00,
2013-05-16 05:34:00,54.0,15.0,29.71,SW,230,2.0,3.0,21,0.00,,,-99.99,,2013-05-16 12:34:00,
2013-05-16 06:26:00,54.0,13.0,29.71,North,0,0.0,3.0,19,0.00,,,-99.99,,2013-05-16 13:26:00,
2013-05-16 06:35:00,54.0,13.0,29.71,North,0,0.0,3.0,19,0.00,,,-99.99,,2013-05-16 13:35:00,
2013-05-16 07:23:00,57.0,14.0,29.72,North,-999,0.0,0.0,18,0.00,,,-99.99,,2013-05-16 14:23:00,
2013-05-16 07:37:00,57.0,14.0,29.72,North,-999,0.0,0.0,18,0.00,,,-99.99,,2013-05-16 14:37:00,
2013-05-16 08:28:00,62.0,11.0,29.72,North,0,0.0,2.0,13,0.00,,,-99.99,,2013-05-16 15:28:00,
2013-05-16 08:40:00,62.0,11.0,29.72,North,0,0.0,2.0,13,0.00,,,-99.99,,2013-05-16 15:40:00,
2013-05-16 09:30:00,66.0,-11.0,29.72,WSW,240,2.0,-999.0,4,0.00,,,-99.99,,2013-05-16 16:30:00,
2013-05-16 09:40:00,66.0,-99.9,29.72,WSW,240,2.0,-999.0,4,0.00,,,-99.99,,2013-05-16 16:40:00,
2013-05-16 09:45:00,67.0,-99.9,29.72,WSW,250,2.0,6.0,1,0.00,,,-99.99,,2013-05-16 16:45:00,
2013-05-16 10:30:00,67.0,-37.0,29.72,WSW,250,2.0,6.0,1,0.00,,,-99.99,,2013-05-16 17:30:00,
2013-05-16 10:40:00,67.0,-37.0,29.72,WSW,250,2.0,6.0,1,0.00,,,-99.99,,2013-05-16 17:40:00,
2013-05-16 10:45:00,-999.0,-99.9,29.72,ENE,60,2.0,5.0,5,0.00,,,-99.99,,2013-05-16 17:45:00,
2013-05-16 11:30:00,-999.0,-99.9,29.72,ENE,60,2.0,5.0,5,0.00,,,-99.99,,2013-05-16 18:30:00,
2013-05-16 11:40:00,-999.0,-99.9,29.72,ENE,60,2.0,5.0,5,0.00,,,-99.99,,2013-05-16 18:40:00,
2013-05-16 11:45:00,-999.0,-99.9,29.71,West,270,2.0,8.0,5,0.00,,,-99.99,,2013-05-16 18:45:00,
2013-05-16 12:30:00,70.0,-4.0,29.71,West,270,2.0,8.0,5,0.00,,,-99.99,,2013-05-16 19:30:00,
2013-05-16 12:40:00,70.0,-99.9,29.71,West,270,2.0,8.0,5,0.00,,,-99.99,,2013-05-16 19:40:00,
2013-05-16 12:45:00,71.0,14.0,29.70,North,0,0.0,7.0,11,0.00,,,-99.99,,2013-05-16 19:45:00,
2013-05-16 13:30:00,71.0,14.0,29.70,North,0,0.0,7.0,11,0.00,,,-99.99,,2013-05-16 20:30:00,
2013-05-16 13:40:00,-999.0,-99.9,29.70,North,0,0.0,7.0,11,0.00,,,-99.99,,2013-05-16 20:40:00,
2013-05-16 13:45:00,68.0,-99.9,29.70,West,280,3.0,7.0,10,0.00,,,-99.99,,2013-05-16 20:45:00,
2013-05-16 14:29:00,68.0,9.0,29.70,West,280,3.0,7.0,10,0.00,,,-99.99,,2013-05-16 21:29:00,
2013-05-16 14:38:00,68.0,9.0,29.70,West,280,3.0,7.0,10,0.00,,,-99.99,,2013-05-16 21:38:00,
2013-05-16 14:45:00,68.0,22.0,29.68,WSW,240,2.0,9.0,17,0.00,,,-99.99,,2013-05-16 21:45:00,
2013-05-16 15:30:00,68.0,22.0,29.68,WSW,240,2.0,9.0,17,0.00,,,-99.99,,2013-05-16 22:30:00,
2013-05-16 15:40:00,68.0,22.0,29.68,WSW,240,2.0,9.0,17,0.00,,,-99.99,,2013-05-16 22:40:00,
2013-05-16 15:45:00,65.0,23.0,29.66,West,270,2.0,8.0,20,0.00,,,-99.99,,2013-05-16 22:45:00,
2013-05-16 16:24:00,65.0,23.0,29.66,West,270,2.0,8.0,20,0.00,,,-99.99,,2013-05-16 23:24:00,
2013-05-16 16:35:00,65.0,23.0,29.66,West,270,2.0,8.0,20,0.00,,,-99.99,,2013-05-16 23:35:00,
2013-05-16 17:22:00,63.0,24.0,29.65,West,260,1.0,8.0,22,0.00,,,-99.99,,2013-05-17 00:22:00,
2013-05-16 17:33:00,63.0,24.0,29.65,West,260,1.0,8.0,22,0.00,,,-99.99,,2013-05-17 00:33:00,
2013-05-16 17:43:00,63.0,24.0,29.65,West,260,1.0,8.0,22,0.00,,,-99.99,,2013-05-17 00:43:00,
2013-05-16 18:23:00,60.0,28.0,29.65,West,280,3.0,7.0,29,0.00,,,-99.99,,2013-05-17 01:23:00,
2013-05-16 18:32:00,60.0,28.0,29.65,West,280,3.0,7.0,29,0.00,,,-99.99,,2013-05-17 01:32:00,
2013-05-16 18:43:00,60.0,28.0,29.65,West,280,3.0,7.0,29,0.00,,,-99.99,,2013-05-17 01:43:00,
2013-05-16 19:21:00,56.0,29.0,29.65,West,280,1.0,5.0,35,0.00,,,-99.99,,2013-05-17 02:21:00,
2013-05-16 19:32:00,56.0,29.0,29.65,West,280,1.0,5.0,35,0.00,,,-99.99,,2013-05-17 02:32:00,
2013-05-16 19:42:00,56.0,29.0,29.65,West,280,1.0,5.0,35,0.00,,,-99.99,,2013-05-17 02:42:00,
2013-05-16 20:22:00,53.0,20.0,29.66,SW,230,4.0,6.0,27,0.00,,,-99.99,,2013-05-17 03:22:00,
2013-05-16 20:34:00,53.0,20.0,29.66,SW,230,4.0,6.0,27,0.00,,,-99.99,,2013-05-17 03:34:00,
2013-05-16 20:43:00,53.0,20.0,29.66,SW,230,4.0,6.0,27,0.00,,,-99.99,,2013-05-17 03:43:00,
2013-05-16 21:23:00,53.0,22.0,29.67,North,0,0.0,4.0,29,0.00,,,-99.99,,2013-05-17 04:23:00,
2013-05-16 21:33:00,53.0,22.0,29.67,North,0,0.0,4.0,29,0.00,,,-99.99,,2013-05-17 04:33:00,
2013-05-16 21:43:00,53.0,22.0,29.67,North,0,0.0,4.0,29,0.00,,,-99.99,,2013-05-17 04:43:00,
2013-05-16 22:22:00,51.0,27.0,29.68,SW,220,1.0,9.0,39,0.00,,,-99.99,,2013-05-17 05:22:00,
2013-05-16 22:32:00,51.0,27.0,29.68,SW,220,1.0,9.0,39,0.00,,,-99.99,,2013-05-17 05:32:00,
2013-05-16 22:42:00,51.0,27.0,29.68,SW,220,1.0,9.0,39,0.00,,,-99.99,,2013-05-17 05:42:00,
2013-05-16 23:42:00,50.0,30.0,29.67,South,190,2.0,5.0,46,0.00,,,-99.99,,2013-05-17 06:42:00,